RH
22 17 18 19 20 19 16 16 19 20 19 16 17 18 24 33 43 67 75 65 52 32 25 26 24 26 22 25 28 24 24 24 22 24 25 23 23 19 15 15 13 13 11 12 19 21 19 16 15 16 17 19 21 24 24 25 41 65 74 77 85 84 81 74 44 22 25 28 32 31 24 27 25 21 18 17 23 30 28 26 29 24 23 36 45 51 56 55
20 19 17 17 17 16 15 14 15 19 18 17 16 16 21 19 21 46 72 80 70 52 43 34 29 27 20 19 21 23 23 18 21 23 19 19 22 18 14 14 13 13 11 12 20 22 21 22 18 16 19 22 22 22 24 25 33 58 77 81 85 83 76 59 30 19 26 29 33 34 28 25 23 21 18 15 21 27 23 25 29 26 30 36 36 36 39 40
20 18 17 16 15 14 13 13 13 15 16 16 16 16 19 19 15 23 55 78 64 49 43 31 29 26 21 19 15 17 19 20 26 25 18 18 20 17 14 15 13 12 11 12 18 20 22 25 20 17 18 22 24 23 26 29 33 53 65 68 78 77 66 46 23 20 28 29 29 31 30 23 21 20 16 18 24 26 23 26 30 32 36 34 32 33 34 36
20 18 16 15 14 13 13 13 13 13 14 15 15 17 20 22 18 13 30 47 37 30 27 23 26 22 18 18 15 14 19 26 28 23 19 19 18 15 14 15 14 13 11 13 17 19 22 24 20 17 15 24 35 28 29 34 32 45 51 58 70 61 50 40 22 22 30 27 22 26 26 20 20 19 18 20 23 28 28 30 32 35 37 35 35 36 35 38
19 17 15 14 13 13 13 13 13 12 12 14 14 16 21 24 20 13 16 19 20 22 20 19 18 16 16 15 14 15 25 33 25 20 18 16 15 15 15 14 14 14 13 15 18 17 18 19 18 20 18 24 33 25 28 33 26 37 44 46 56 45 34 32 24 23 27 22 20 23 19 18 21 20 21 22 24 31 33 33 35 35 36 37 37 37 38 39
19 17 15 14 13 13 13 12 14 14 13 14 16 17 21 27 23 16 15 15 17 17 17 17 14 15 15 14 15 17 31 35 23 18 17 15 15 15 14 14 15 15 16 17 17 16 16 18 18 23 24 23 28 23 24 25 18 29 37 33 38 36 27 23 22 22 23 19 19 19 17 21 23 23 25 26 31 34 34 35 35 36 36 37 39 39 41 41
18 16 15 14 14 13 13 16 17 18 18 17 18 19 23 28 27 21 18 17 16 15 16 15 13 15 13 16 20 24 34 31 21 17 16 16 15 15 14 14 16 16 17 16 17 18 17 18 18 21 23 23 26 23 22 21 17 22 30 30 25 25 24 21 20 20 21 18 18 19 18 22 23 24 27 28 32 34 34 36 36 37 38 38 40 41 42 43
18 15 15 14 13 14 16 20 22 22 20 20 20 21 25 28 26 24 23 19 15 16 16 14 14 14 13 21 30 34 35 26 20 17 15 16 14 15 14 15 17 16 16 16 19 20 17 18 17 19 21 23 24 23 24 21 23 23 23 28 23 22 23 22 23 21 21 19 19 20 16 20 24 23 26 29 32 34 35 36 38 38 39 41 41 43 43 44
17 15 14 13 14 18 21 22 27 27 20 20 22 21 25 27 23 23 25 21 16 14 14 14 14 13 14 26 34 32 29 22 18 16 14 15 14 15 17 17 16 15 15 16 17 16 17 19 18 17 19 23 20 23 28 21 28 30 22 27 26 25 24 22 23 20 19 20 17 16 19 24 23 23 28 31 32 34 37 37 39 40 41 44 43 44 45 45
16 15 13 12 16 22 22 21 27 27 21 21 24 25 26 25 22 22 26 21 15 13 14 13 13 14 13 23 31 25 22 19 15 16 14 13 14 16 17 16 15 15 15 15 16 17 18 17 18 17 17 21 20 25 30 21 27 33 28 30 28 27 27 22 21 21 19 18 17 17 23 25 23 29 32 33 35 35 40 41 41 43 44 45 44 45 46 46
15 14 12 13 18 22 21 20 23 22 20 20 22 24 22 22 20 22 25 20 14 12 13 13 14 15 14 23 33 24 18 18 16 16 13 14 15 15 15 14 14 13 14 16 16 18 18 16 18 19 19 20 22 28 29 25 28 29 29 29 29 30 28 25 23 23 20 17 20 20 22 26 26 34 35 34 38 38 42 45 44 45 46 46 46 47 47 48
14 13 12 16 20 19 20 21 20 19 20 20 21 22 21 21 20 22 24 18 13 12 13 14 13 17 22 31 36 24 17 18 17 15 14 16 15 15 15 14 14 13 14 17 16 17 17 17 16 20 23 22 28 30 25 29 27 25 29 26 33 39 29 27 27 22 19 18 23 20 19 30 35 37 37 36 39 41 44 46 47 48 48 48 48 48 48 49
14 12 12 18 19 17 19 20 18 18 19 20 22 20 18 19 20 23 22 16 13 12 13 14 13 19 29 34 30 21 19 19 16 15 16 16 15 16 15 14 15 13 14 14 15 16 15 18 16 21 25 24 32 28 22 31 26 25 31 27 34 42 36 29 26 23 17 21 26 17 17 32 40 39 39 40 40 44 48 49 49 50 50 50 50 50 50 49
13 11 14 18 17 16 19 18 18 18 18 20 19 17 18 20 22 22 18 14 12 12 14 14 14 22 31 32 23 18 20 18 16 17 16 16 17 15 14 16 15 13 15 14 15 16 16 18 16 21 25 25 28 24 33 46 41 33 30 44 47 38 47 41 27 25 16 23 31 23 30 39 42 42 41 43 43 47 53 53 52 52 52 52 52 52 51 51
12 11 15 18 16 16 18 17 17 18 19 20 18 18 19 19 20 18 15 13 13 14 14 13 18 30 41 34 20 18 19 17 18 17 16 17 16 15 15 15 14 14 15 14 14 15 16 17 18 25 26 29 31 29 45 59 64 53 31 56 66 41 58 51 24 27 18 20 30 27 39 46 45 46 43 45 46 50 55 56 55 55 55 54 55 55 53 53
11 14 17 18 16 16 17 16 17 18 18 17 16 16 17 16 16 15 14 14 13 14 14 17 23 33 43 33 19 19 19 18 19 17 16 17 14 15 15 13 14 14 13 16 16 15 16 18 24 34 30 28 34 37 47 61 79 76 41 47 59 42 52 43 23 32 26 19 24 28 41 48 50 48 44 47 48 52 57 59 59 58 58 57 56 57 56 56
12 16 19 18 16 16 16 14 16 16 16 15 14 14 13 14 14 14 15 15 15 19 26 31 27 30 35 25 19 20 20 19 17 17 16 15 15 14 14 15 15 13 14 15 15 18 18 21 24 31 42 44 47 51 50 57 68 69 56 47 51 48 44 39 31 29 27 27 31 40 51 54 53 50 48 49 49 55 59 60 62 60 60 60 59 58 58 58
14 19 21 19 16 16 14 14 16 15 15 13 13 15 15 16 17 16 17 19 25 29 35 37 30 36 35 21 20 19 17 17 15 17 15 14 16 14 14 16 15 15 19 19 21 23 18 31 41 42 61 59 52 59 53 57 55 44 49 41 40 51 42 39 40 30 29 35 41 50 57 59 55 51 51 50 50 57 60 60 62 62 62 62 61 61 59 59
17 22 22 19 17 17 15 15 15 14 15 16 22 26 27 30 29 26 24 28 40 42 41 41 38 43 37 21 19 17 16 17 15 15 14 16 15 14 16 14 17 18 19 25 24 25 27 41 51 44 54 51 44 58 52 53 51 32 37 37 34 44 42 38 41 41 40 39 47 54 57 61 58 56 55 53 54 57 61 62 62 63 63 63 62 61 59 58
21 24 23 21 18 17 18 16 16 16 17 21 29 34 38 48 50 46 44 40 44 45 41 42 38 32 27 21 19 17 17 17 15 16 16 17 16 17 16 14 25 22 24 38 28 30 43 45 50 45 46 47 45 54 48 44 46 34 38 44 43 47 50 43 37 45 46 42 54 57 59 64 60 60 58 55 58 61 64 65 66 66 64 64 64 63 61 58
24 24 22 22 18 19 20 18 17 17 20 27 36 45 50 54 54 51 53 47 39 36 34 34 30 23 20 19 18 16 18 17 16 18 17 17 18 16 15 19 28 23 32 48 39 44 47 37 54 63 51 44 40 44 44 37 37 41 44 46 50 54 54 43 37 46 42 41 57 59 63 69 64 63 60 58 63 66 67 67 68 68 66 67 66 65 63 59
27 23 20 22 21 21 20 19 20 20 28 37 47 59 53 41 40 36 41 47 36 34 38 32 24 22 18 17 18 18 21 21 18 18 18 18 20 18 20 26 25 26 41 46 40 51 52 43 57 62 47 39 42 49 49 43 46 55 53 46 50 57 56 48 50 56 39 36 57 63 70 73 66 65 63 64 68 67 66 67 68 68 68 69 68 68 66 63
26 22 19 22 24 23 20 21 24 24 29 37 47 58 47 31 35 30 34 48 41 38 42 34 26 23 21 18 19 21 22 23 21 20 20 19 24 25 24 29 30 34 44 45 42 43 44 45 48 51 43 32 41 54 52 49 52 57 53 46 50 54 46 37 46 56 43 40 57 65 73 75 66 67 68 65 66 68 67 68 69 69 70 70 69 69 69 70
23 22 19 22 25 24 21 22 28 27 26 32 36 46 43 30 31 30 37 51 48 41 35 31 30 24 22 19 17 23 25 24 23 21 20 22 27 28 23 29 37 39 40 49 54 45 40 40 39 50 53 42 46 52 46 39 39 56 64 51 45 44 36 34 45 52 47 50 59 63 72 76 71 73 75 68 66 69 68 70 72 71 71 71 70 70 70 72
21 21 19 21 24 25 23 23 28 26 29 37 37 41 40 29 28 29 40 53 50 47 39 32 31 23 20 20 18 26 27 24 24 21 21 24 27 28 28 30 30 33 40 48 51 42 39 39 35 43 55 59 60 50 39 34 30 47 64 52 39 37 39 48 53 48 44 47 51 55 62 71 76 78 78 73 72 73 70 73 76 73 73 73 72 71 70 71
19 18 19 20 22 25 25 26 30 28 33 40 39 37 29 25 30 27 46 67 56 48 43 33 32 29 24 23 24 32 33 29 25 21 21 23 26 28 34 40 32 29 37 42 43 36 35 43 44 44 53 57 56 44 38 44 38 33 45 52 48 45 47 51 48 44 45 41 39 43 47 62 79 81 78 78 80 80 76 77 78 74 73 74 72 71 70 71
20 19 18 20 23 25 26 32 38 37 38 41 38 32 22 26 31 25 49 70 51 41 38 31 32 30 27 28 27 26 25 28 26 22 25 23 25 31 36 44 38 33 42 46 44 38 38 47 49 50 55 49 40 34 35 45 38 25 39 53 49 45 47 47 43 44 48 46 48 48 42 58 79 78 77 80 83 86 83 81 79 75 75 73 72 70 71 73
25 22 20 23 24 26 32 38 40 39 40 40 36 33 27 28 29 38 58 52 34 34 33 31 29 24 29 31 29 30 25 30 31 26 27 21 23 36 43 43 36 35 46 49 43 41 41 40 37 41 44 37 30 30 38 43 32 32 48 51 47 46 50 54 50 54 58 49 51 52 45 54 70 78 81 81 86 90 87 85 81 77 76 74 74 73 74 77
25 24 24 25 23 29 35 34 36 42 39 31 29 31 29 26 34 56 63 37 28 39 36 32 25 24 43 41 35 42 35 33 36 29 29 25 20 33 44 42 42 43 46 54 55 46 42 40 37 41 37 29 32 40 48 42 30 41 50 43 50 58 62 63 56 64 69 54 51 48 37 37 51 79 92 83 88 92 85 84 81 79 78 76 78 78 77 80
24 25 26 26 24 31 32 28 34 38 34 29 28 30 28 35 59 67 43 23 33 44 38 33 28 36 55 44 33 45 43 38 45 41 36 33 25 32 43 42 52 60 53 61 66 50 51 57 47 45 40 33 38 46 54 50 38 45 47 38 40 46 59 74 75 73 63 56 65 52 30 23 30 67 94 84 84 85 80 82 78 76 79 78 80 79 78 79
26 28 28 26 28 31 33 40 43 34 30 28 25 32 35 51 83 71 28 20 39 46 40 36 42 53 57 39 28 43 50 43 49 50 42 43 37 34 40 38 51 69 61 59 62 51 53 54 41 45 51 46 41 36 45 58 53 45 40 31 26 32 57 79 81 72 53 49 62 53 33 22 23 56 88 85 80 79 76 79 78 77 78 79 81 79 79 78
31 30 28 29 32 33 35 44 44 34 31 27 31 51 59 58 62 50 33 34 41 44 40 34 44 54 53 45 36 42 49 40 47 55 48 50 49 43 44 41 45 51 46 47 49 45 46 43 42 49 49 44 37 29 33 47 46 34 33 40 46 53 64 68 62 62 61 50 42 39 30 23 35 68 87 84 81 80 76 76 78 78 76 76 78 77 77 80
35 35 35 37 38 35 34 34 32 33 31 31 45 66 74 62 39 32 46 46 36 40 43 42 53 54 47 44 37 41 46 36 41 50 49 54 55 54 55 52 47 35 28 35 39 46 50 44 46 43 36 39 35 26 26 30 32 29 34 50 61 61 58 59 58 55 55 44 30 29 31 40 60 76 81 80 76 76 76 77 78 77 76 73 70 73 77 81
36 38 38 40 39 34 32 28 27 34 33 38 58 63 53 42 32 37 51 51 47 52 52 53 57 48 43 40 36 42 43 35 41 47 54 64 60 59 59 52 51 48 45 41 35 49 50 32 34 31 26 36 33 29 31 29 33 37 39 46 50 48 47 51 59 54 49 50 40 26 32 60 74 69 73 74 68 72 74 73 76 75 77 75 65 68 74 74
38 37 33 32 32 30 28 27 26 29 32 47 72 71 44 28 35 49 57 60 60 54 52 62 62 48 45 47 46 50 38 32 49 54 59 70 63 60 60 46 46 58 60 41 30 47 43 25 37 42 33 34 30 38 47 37 37 42 39 38 41 46 50 54 60 52 45 55 57 44 49 77 80 68 73 72 67 74 70 68 74 70 71 72 61 60 66 68
44 39 33 28 28 27 26 26 25 27 38 54 64 62 50 40 43 55 60 60 57 49 48 59 60 50 46 47 51 55 40 30 50 58 55 64 63 59 60 50 46 58 61 45 38 47 35 22 41 49 36 32 31 40 49 38 33 38 32 27 35 42 42 47 55 51 47 53 57 51 53 72 77 68 75 77 70 66 57 57 66 64 62 63 58 60 64 63
46 39 33 28 28 27 25 25 24 30 50 66 64 53 51 52 53 68 75 62 53 58 56 48 43 41 43 46 46 51 46 34 46 55 47 51 56 53 59 57 48 55 63 53 42 47 43 32 42 46 30 32 46 49 47 44 38 39 34 28 39 48 44 48 56 62 67 63 55 46 40 54 65 67 83 87 69 56 49 46 52 60 62 60 61 63 61 59
40 37 33 30 27 23 24 24 26 40 58 74 79 67 61 64 64 75 83 68 59 64 62 50 39 36 44 47 40 46 53 43 46 55 48 50 56 51 56 59 52 59 72 61 42 48 59 45 37 41 30 33 53 46 38 46 43 39 38 34 41 49 54 61 59 58 63 58 56 56 47 50 63 77 95 93 67 53 49 42 44 58 65 65 63 58 55 55
41 43 36 28 25 24 27 26 33 55 62 66 76 69 65 72 73 79 80 67 62 63 58 50 43 44 51 50 44 47 51 45 46 51 47 48 52 49 53 57 54 64 75 65 46 43 56 50 33 36 34 30 38 36 35 43 43 41 43 45 52 56 61 68 58 55 61 54 59 69 56 54 76 88 86 77 60 45 40 39 40 51 64 67 60 50 45 46
51 51 35 24 28 31 31 29 41 68 72 68 77 74 68 69 71 82 83 68 60 55 50 50 51 54 52 48 48 49 50 50 49 53 57 56 51 49 58 63 62 71 76 67 55 47 49 42 28 34 42 29 23 30 34 34 37 46 49 48 55 57 57 59 52 53 60 51 58 76 63 55 74 75 57 54 53 38 33 37 40 53 66 63 53 44 41 43
58 55 32 25 33 33 35 39 53 77 80 72 76 78 74 69 64 70 78 75 64 52 50 58 60 59 54 49 50 51 57 62 58 59 63 59 51 46 54 67 70 70 66 60 60 55 45 36 33 45 47 29 24 34 36 35 36 39 38 39 50 54 48 48 51 60 67 59 57 66 61 56 64 54 35 39 45 35 32 38 45 57 59 49 45 44 42 44
62 53 29 30 34 30 43 59 71 88 88 73 69 70 72 72 63 59 66 68 57 50 55 61 60 59 56 52 53 58 64 62 59 61 61 60 62 55 56 69 74 70 63 57 60 59 53 51 51 53 45 29 29 40 46 46 39 32 34 40 53 60 52 46 53 62 70 73 71 72 73 74 71 54 34 31 36 35 34 39 50 56 49 43 45 45 43 43
61 42 23 31 33 32 48 63 75 85 79 67 66 66 70 74 68 62 64 61 54 54 58 59 56 52 49 51 53 53 56 54 51 57 64 70 73 68 69 71 66 65 58 48 53 59 56 53 48 49 51 39 30 39 47 43 32 29 35 41 48 53 53 55 62 72 83 83 79 83 85 78 72 62 46 34 35 39 39 43 53 53 43 42 44 42 42 40
64 43 34 32 21 31 53 62 72 78 65 59 63 62 63 69 72 69 64 61 60 57 54 55 52 44 46 57 55 43 42 46 47 51 61 71 69 66 72 70 59 55 46 39 48 48 38 43 52 53 50 39 31 42 50 45 37 30 30 46 61 65 69 72 71 82 95 84 73 86 87 68 64 69 60 46 42 42 40 43 49 47 40 40 42 40 40 37
57 46 51 45 25 39 64 66 69 72 67 65 63 60 60 59 65 70 62 58 61 58 50 46 49 50 52 57 55 48 45 43 43 47 52 61 65 63 65 66 60 54 55 62 65 48 35 50 60 49 41 39 37 40 43 45 46 36 32 50 68 72 74 75 74 83 92 86 84 94 84 58 54 66 65 55 46 41 40 41 43 42 40 41 42 39 38 38
46 44 53 51 40 55 72 73 69 65 69 71 59 57 67 63 61 64 56 47 50 56 52 46 48 49 48 55 58 51 48 48 48 53 54 54 54 57 64 66 56 55 70 78 72 60 52 56 58 54 54 51 42 39 41 44 43 37 38 46 51 63 74 78 84 86 86 93 91 77 68 61 57 59 57 50 45 43 43 43 44 44 43 43 42 40 41 42
51 52 52 42 38 55 64 67 71 66 65 68 53 49 64 66 56 48 41 37 44 55 57 54 52 40 32 48 51 37 46 57 52 52 57 58 57 60 70 66 50 58 73 62 58 64 50 37 45 56 58 53 46 45 42 39 39 36 41 46 42 56 77 84 82 72 73 93 84 54 59 74 66 55 51 48 47 45 44 46 48 48 46 44 43 44 46 44
49 52 55 46 44 58 59 54 66 70 67 70 65 59 66 70 60 51 48 44 45 49 45 44 52 52 46 46 35 28 45 50 41 46 53 57 65 67 65 56 46 59 64 44 52 72 51 33 45 49 47 47 42 36 33 36 42 38 40 45 39 45 68 78 72 63 68 84 73 52 64 77 67 56 52 48 46 46 47 50 50 49 48 47 47 48 48 48
48 49 54 56 57 65 65 59 60 62 67 78 75 64 67 70 62 59 60 50 42 47 47 39 42 55 65 64 50 42 43 28 18 39 58 62 68 69 63 57 50 57 59 43 52 70 54 47 61 54 45 49 41 34 38 42 44 40 38 41 37 39 53 63 66 67 70 74 68 64 74 74 60 51 47 44 45 47 49 50 50 51 51 51 52 52 51 54
47 45 46 55 62 66 67 68 64 55 63 79 71 58 69 73 62 58 59 49 36 38 50 51 48 57 73 80 65 43 42 38 18 28 57 60 57 64 65 58 53 58 64 53 50 56 48 53 73 66 51 54 49 41 42 42 43 44 40 40 45 48 51 61 71 71 69 70 66 67 76 70 50 43 45 46 47 50 52 53 53 53 53 54 55 55 58 63
43 41 39 43 53 61 64 70 74 62 57 70 69 59 60 61 60 60 57 57 52 45 53 63 62 66 71 68 55 38 51 72 54 47 68 61 47 57 59 55 59 63 68 65 56 55 54 57 75 75 58 50 44 38 44 44 44 52 52 47 49 51 53 63 72 68 63 66 70 74 79 69 49 46 52 51 51 54 55 55 57 56 54 55 56 60 67 69
41 36 41 46 49 61 71 75 78 64 49 59 73 70 57 53 64 63 48 52 59 54 62 70 65 67 61 40 33 39 58 80 77 76 88 77 65 71 67 65 69 65 72 76 63 65 70 59 58 65 60 52 42 40 49 46 41 54 65 58 52 53 57 61 64 63 60 63 74 80 73 59 51 56 63 60 57 59 58 57 60 60 56 54 58 66 72 68
Wind_Speed
6 6 7 8 9 9 9 9 8 8 7 6 5 6 7 6 6 5 8 9 6 6 6 5 4 3 3 1 3 2 2 2 4 7 8 7 5 4 4 3 4 5 5 4 3 3 5 7 8 8 5 3 1 1 2 2 2 3 2 1 2 3 3 4 4 2 1 3 3 2 3 5 4 4 3 4 5 6 6 6 4 6 11 16 22 27 26 24
5 5 6 7 9 9 9 9 9 10 10 8 6 6 8 8 8 5 7 10 7 6 8 5 3 1 2 3 0 1 4 7 8 9 10 8 7 5 3 2 4 5 5 2 2 4 4 4 7 8 4 1 2 2 1 1 2 3 3 2 4 4 4 5 5 3 2 3 3 2 1 2 2 3 3 4 5 7 6 7 6 10 14 20 26 30 31 32
6 5 6 7 8 9 9 9 9 11 11 10 8 7 8 8 9 7 6 10 7 6 7 3 2 2 1 3 4 4 5 5 5 7 7 6 5 5 2 2 3 4 4 1 2 3 2 4 6 4 2 0 3 1 1 2 1 2 3 2 6 6 5 4 3 4 5 4 2 3 4 1 2 1 2 5 6 6 6 7 7 11 11 13 19 25 30 31
7 6 6 6 8 8 9 9 10 12 12 11 9 8 8 8 9 9 9 11 9 7 7 6 4 2 2 4 5 3 3 3 2 3 3 6 5 3 1 2 3 4 4 2 2 3 5 6 3 1 2 1 3 2 0 3 1 1 3 5 6 5 4 6 5 5 5 3 0 2 1 2 1 1 2 4 6 6 7 7 9 10 9 11 13 20 26 28
7 7 6 6 7 8 8 9 10 11 12 11 9 8 8 8 8 10 11 11 11 10 10 10 9 7 5 4 3 2 1 3 2 3 6 6 4 2 1 1 3 4 3 3 4 6 8 5 2 3 2 1 3 3 2 4 2 1 3 5 6 4 4 7 5 2 1 2 4 5 6 3 1 3 6 8 7 5 5 7 11 12 10 12 13 19 25 26
8 8 7 6 6 8 8 9 9 10 11 11 10 9 8 8 8 10 12 12 12 11 11 10 8 7 4 2 1 1 3 1 2 3 5 4 3 1 1 1 3 4 4 5 7 8 7 4 4 2 2 1 2 1 4 3 1 2 4 4 4 4 4 5 2 1 3 5 4 4 3 1 4 7 11 14 9 5 7 9 13 14 14 17 20 22 22 21
9 9 7 7 7 8 9 9 8 8 10 12 10 9 9 8 9 10 11 11 11 11 10 9 8 6 2 1 1 2 3 2 3 4 3 3 2 1 1 0 3 3 5 8 10 7 4 6 3 1 2 2 2 3 4 4 2 3 4 4 3 4 4 4 2 3 2 1 5 1 2 3 7 6 10 15 9 7 9 13 17 17 20 24 23 21 19 20
10 9 8 8 8 10 10 9 8 7 7 11 11 10 9 9 9 9 9 10 10 10 10 9 7 5 3 3 3 3 2 3 2 4 2 2 2 1 2 1 2 3 5 9 9 4 2 5 2 1 2 2 1 2 4 5 3 1 4 3 3 3 5 6 5 6 5 4 5 0 3 4 8 11 10 10 8 7 9 13 16 17 21 23 20 18 19 21
10 9 8 8 9 10 10 10 9 7 6 8 11 11 10 9 9 9 9 9 10 11 10 8 7 5 4 3 4 3 2 3 3 3 1 2 2 2 2 1 1 3 5 8 9 5 1 1 0 1 1 3 1 3 4 3 2 2 2 2 4 6 7 7 7 7 5 3 3 2 8 6 5 10 10 9 7 6 10 14 14 17 20 19 16 18 21 21
9 9 8 8 9 10 9 9 9 8 6 4 8 10 10 9 9 9 9 9 9 10 9 8 7 5 5 3 5 2 2 3 4 2 3 2 2 2 2 1 3 5 5 7 10 8 2 0 1 2 3 1 2 3 2 1 3 3 3 5 6 7 7 5 8 9 4 3 3 6 9 9 7 6 7 7 6 5 12 17 14 18 18 16 15 17 21 23
9 8 8 8 8 9 9 7 7 6 4 1 5 8 8 8 9 9 9 8 9 9 8 8 6 5 6 3 4 2 2 3 3 2 3 2 1 1 2 2 5 5 4 4 7 8 6 2 1 3 1 1 2 4 3 2 2 3 4 7 8 7 8 6 7 7 1 1 4 11 10 11 12 7 5 5 6 6 14 17 15 17 15 14 15 15 20 23
9 7 7 8 8 8 7 4 4 3 3 4 5 7 7 8 9 8 8 8 9 9 8 8 7 7 4 3 2 3 2 3 2 2 2 1 1 3 3 3 6 4 3 4 4 6 7 6 6 4 2 1 2 3 2 3 2 3 4 5 9 8 7 6 5 3 3 2 4 9 6 10 10 6 5 6 4 7 16 16 14 15 12 12 13 12 16 20
7 6 6 7 7 6 4 2 2 3 5 6 6 7 7 8 8 8 8 8 9 9 8 8 8 7 4 1 2 3 5 5 2 2 1 1 3 5 4 3 4 4 2 3 4 5 5 6 6 2 2 2 1 3 1 2 2 3 2 1 5 7 6 6 4 2 4 2 2 3 1 4 7 7 8 6 2 9 17 14 12 12 10 11 11 10 12 19
6 6 6 5 6 4 3 2 4 6 7 7 7 7 8 8 9 8 9 9 9 8 7 8 8 5 2 0 2 4 5 5 5 4 3 3 6 5 3 2 2 2 2 4 5 3 3 4 4 2 0 2 2 4 4 5 3 2 2 1 3 2 4 8 5 4 4 1 4 6 3 2 5 7 8 7 4 12 16 11 11 10 9 9 9 10 11 16
5 5 5 4 4 4 4 4 6 9 10 10 10 9 9 10 10 10 10 10 9 9 8 8 7 4 1 1 1 4 5 4 6 5 3 4 6 5 3 3 3 2 3 5 5 3 2 3 3 2 2 2 2 4 4 5 3 2 1 3 3 0 5 9 5 2 2 1 5 6 3 3 5 6 7 6 6 13 15 10 10 10 10 10 9 10 9 12
4 4 3 3 3 3 5 7 9 11 12 13 13 13 13 13 12 12 11 11 10 10 8 6 5 2 3 0 0 2 3 3 4 4 3 4 6 4 5 5 4 3 4 4 3 3 2 3 2 2 1 3 3 4 3 4 4 3 2 2 3 1 4 5 4 3 1 2 6 6 4 3 4 5 6 6 6 12 13 10 10 9 9 9 8 9 8 9
3 3 2 2 2 4 6 8 10 11 13 14 14 15 14 14 13 12 12 11 11 9 5 3 2 1 2 0 1 0 2 2 3 3 3 5 5 4 6 4 3 5 3 2 2 2 2 2 1 0 2 2 2 4 4 3 3 4 3 1 3 2 2 4 4 5 4 3 5 8 8 5 4 5 6 7 7 11 13 10 10 9 8 8 7 8 9 9
2 2 1 1 3 5 6 8 10 11 13 15 16 16 15 15 13 12 12 10 8 5 2 2 2 2 1 1 0 1 0 1 2 2 3 4 5 6 6 2 3 6 5 3 3 2 2 2 1 1 3 4 3 5 2 2 2 3 3 1 3 3 2 4 4 4 4 5 7 10 9 7 6 6 7 7 7 11 11 8 8 8 8 8 8 8 8 9
1 1 2 2 4 5 6 8 11 12 13 15 16 16 15 13 11 9 8 6 4 2 0 1 2 2 2 1 1 1 2 2 2 2 4 6 7 7 4 1 2 4 4 2 3 1 1 3 3 2 3 4 2 4 5 7 6 5 4 3 4 4 4 5 5 5 1 5 6 9 9 7 6 6 6 6 6 10 9 7 7 7 7 7 7 8 8 9
1 0 2 3 4 6 7 9 11 13 13 14 14 11 8 6 5 3 2 2 1 2 1 2 1 2 0 1 3 3 3 2 2 3 7 10 9 5 3 2 4 5 2 2 1 1 3 4 1 3 4 5 5 5 7 6 4 3 2 2 4 3 4 6 4 5 0 6 5 8 11 7 6 5 5 5 6 9 8 8 8 7 7 7 7 8 8 8
1 2 3 4 5 7 9 10 12 13 12 11 8 5 2 2 3 0 1 1 1 1 1 2 1 2 1 1 3 3 1 2 3 4 8 11 6 2 2 3 5 4 2 4 2 2 4 3 3 6 7 6 3 5 5 3 3 2 3 2 2 3 4 6 2 5 4 6 2 6 12 7 5 5 4 5 7 8 7 7 7 7 7 6 7 7 6 6
3 3 4 4 5 6 10 11 11 10 8 6 4 2 2 2 2 2 2 2 3 4 4 3 2 2 1 2 3 3 3 4 4 4 10 12 5 1 2 3 4 1 3 1 2 5 4 1 7 7 5 2 2 2 1 2 3 3 2 2 3 2 3 6 3 5 6 5 2 4 10 6 3 5 5 5 7 6 5 6 6 6 6 6 6 6 5 5
4 4 5 6 5 6 10 11 10 7 5 3 2 1 1 1 2 3 3 4 1 3 4 3 2 1 2 2 2 3 5 4 2 4 11 11 4 0 1 4 2 0 4 3 3 2 2 3 5 2 1 3 4 6 6 5 3 3 3 3 1 4 2 3 4 6 6 3 5 8 9 4 3 4 5 5 5 6 5 6 6 5 6 6 5 5 5 5
6 5 6 7 7 7 9 10 7 3 2 1 2 1 1 2 5 4 3 3 1 2 1 1 2 2 0 1 3 4 4 2 1 4 9 7 1 1 2 2 3 3 3 2 5 4 2 5 2 4 6 5 4 6 7 5 4 3 0 4 1 5 2 4 4 6 5 5 7 10 6 1 4 3 3 3 4 4 5 6 6 5 5 5 4 5 4 4
7 6 7 8 8 7 8 7 4 2 1 2 3 3 1 3 5 4 2 3 2 2 2 1 0 1 1 2 2 2 3 2 0 3 5 5 1 1 1 1 3 2 3 1 6 4 1 4 3 5 6 6 6 4 4 3 3 4 2 4 2 3 5 5 5 5 4 2 4 5 3 2 3 4 4 4 3 3 3 4 6 4 4 4 3 3 4 4
9 8 7 9 9 8 7 4 2 2 1 3 2 1 3 4 4 3 1 4 2 3 2 1 1 2 3 2 1 2 4 2 2 2 4 6 2 1 2 2 2 1 3 1 3 2 1 4 5 5 5 7 6 3 2 3 4 3 1 3 2 1 4 5 4 4 2 2 4 2 1 2 3 4 5 5 4 3 3 3 4 3 3 3 2 1 2 3
10 10 9 9 10 9 6 2 3 4 1 3 3 3 4 4 2 2 2 5 2 1 1 1 1 2 2 1 1 3 2 3 3 3 4 8 5 1 3 3 1 1 1 3 2 1 1 5 7 6 6 6 5 3 1 4 5 2 1 2 3 5 5 4 1 1 3 1 3 2 2 2 3 4 6 6 5 4 2 3 2 2 2 1 1 2 3 4
9 10 11 11 12 11 4 2 5 4 1 3 4 5 5 4 2 1 5 4 1 0 1 2 1 1 2 3 5 4 1 1 3 3 4 9 8 2 4 2 2 2 3 5 2 2 2 4 5 5 5 5 2 2 2 3 2 4 4 1 5 5 3 2 2 3 2 2 4 5 3 2 4 2 6 5 4 4 3 3 2 3 3 3 3 4 4 4
8 10 11 12 14 11 4 3 4 3 2 3 5 7 6 3 1 4 5 2 1 0 0 1 1 2 4 6 6 4 2 2 2 3 5 9 9 5 3 0 3 2 3 5 4 2 1 0 1 4 4 2 2 4 2 3 2 4 2 3 3 3 1 1 3 2 2 3 3 5 2 1 3 2 5 4 3 4 4 3 3 4 4 4 4 4 5 4
8 10 11 12 14 11 4 2 1 2 3 4 7 7 4 2 4 5 2 1 0 1 1 1 1 3 5 6 5 5 4 2 2 4 5 5 8 7 2 1 4 5 4 5 3 1 3 2 1 4 2 1 3 3 2 3 4 3 4 4 4 5 4 3 2 3 4 3 5 5 1 2 3 2 4 3 2 5 4 3 3 4 4 4 4 4 5 4
7 9 11 12 11 10 4 2 1 3 3 6 8 5 3 3 4 5 1 2 0 2 2 3 2 4 6 5 2 4 4 4 5 5 5 4 8 8 5 4 4 5 5 5 4 4 5 5 2 1 1 0 2 2 1 1 2 3 4 4 4 4 4 4 5 4 3 4 6 4 3 3 4 3 2 2 2 6 5 4 4 4 5 4 5 5 5 5
8 8 10 10 8 8 5 2 1 3 4 7 7 3 4 2 3 3 1 3 1 2 2 2 2 3 4 3 3 4 3 3 4 5 3 3 6 6 5 4 1 3 4 3 4 4 3 2 3 3 2 2 4 3 3 4 5 5 4 4 5 4 4 4 4 2 1 5 5 1 3 2 3 3 3 5 4 5 5 4 5 5 5 4 5 5 5 5
11 10 9 7 5 6 4 3 1 4 5 7 4 4 5 4 1 1 2 2 1 2 1 1 2 2 4 4 3 3 2 2 2 4 2 2 5 4 4 4 2 2 1 1 2 4 3 4 5 4 2 1 4 4 4 4 4 5 2 3 3 2 4 4 4 3 3 6 6 1 2 3 3 1 5 7 5 6 5 5 5 6 5 5 5 4 4 4
11 10 8 7 5 5 3 2 2 5 6 5 3 5 5 3 1 1 2 1 1 2 2 2 3 3 4 3 1 1 2 3 2 4 4 3 4 3 3 6 6 3 2 2 2 2 2 3 4 2 1 1 2 2 1 1 1 2 2 5 3 2 1 3 3 3 4 6 6 3 2 3 2 0 5 7 5 5 4 4 5 4 5 4 4 3 4 4
9 9 8 7 5 3 2 2 4 4 4 3 5 5 4 1 2 1 0 2 1 2 2 2 3 4 4 3 2 1 1 1 3 5 5 3 3 2 2 4 5 3 3 3 1 1 2 3 5 3 2 0 1 1 2 4 1 3 2 4 2 2 4 2 4 5 3 6 5 3 2 2 1 1 3 3 3 4 3 4 4 4 5 3 3 4 4 4
7 7 7 6 5 4 4 3 3 3 2 5 6 4 2 3 2 2 2 1 1 0 2 3 4 4 3 3 3 4 2 1 3 4 4 2 2 2 2 2 3 3 3 3 0 1 2 3 5 4 3 2 2 2 0 3 0 1 2 1 3 3 6 2 3 2 1 4 4 2 3 1 1 2 4 3 3 4 2 2 4 5 4 3 3 4 4 4
4 5 5 5 6 4 4 3 2 2 3 6 5 2 2 2 2 2 1 0 1 2 3 1 1 2 0 2 3 5 4 2 2 3 2 1 1 2 3 3 2 3 2 2 1 1 2 2 5 3 3 3 3 2 1 1 3 3 1 3 2 1 4 3 1 4 3 3 4 3 6 5 1 1 3 4 4 3 2 3 4 5 4 4 5 4 4 5
3 3 3 7 8 5 4 2 1 2 5 6 5 2 1 1 1 2 1 1 1 3 4 2 0 1 2 1 1 4 4 2 2 3 2 1 1 1 2 3 2 2 2 0 1 1 3 1 6 2 1 6 3 4 3 4 2 3 2 2 2 2 2 1 1 2 3 5 5 4 7 5 3 3 5 7 5 3 5 5 4 5 4 4 4 4 5 6
2 2 2 6 8 6 4 1 1 4 6 5 3 2 1 1 1 2 2 2 2 3 3 1 1 2 2 3 1 3 2 2 1 2 2 1 1 2 2 1 3 4 4 1 3 1 2 3 4 4 2 5 5 4 2 4 5 4 3 3 3 3 3 1 1 1 2 5 5 5 6 4 4 5 8 9 6 4 4 4 3 5 5 4 4 4 5 5
2 2 1 6 8 5 3 4 5 6 5 3 3 2 1 1 2 3 2 2 1 2 2 1 1 3 2 1 0 1 1 2 2 2 2 1 1 0 1 0 2 5 5 4 3 0 2 3 2 5 5 3 2 1 1 2 1 2 4 4 3 2 0 1 1 2 2 4 4 4 6 6 3 4 8 8 6 3 3 4 5 4 4 5 5 5 5 5
2 3 1 7 9 3 3 7 7 4 4 3 2 2 1 2 0 3 2 1 1 1 2 3 3 3 3 1 1 1 1 3 3 3 1 1 2 0 2 2 1 3 3 5 3 1 1 1 2 4 5 2 4 4 2 2 4 4 2 1 1 1 2 2 4 2 1 3 4 4 8 8 3 4 6 7 6 4 3 5 5 4 4 4 5 5 5 5
4 3 2 8 8 2 6 6 3 2 4 2 2 2 1 2 2 3 4 2 2 2 3 4 3 2 2 2 0 0 3 3 2 2 1 1 2 2 2 1 1 1 1 1 1 1 1 3 2 3 3 4 8 5 1 1 3 5 2 2 2 1 3 2 5 4 2 2 1 2 6 8 4 5 6 5 6 5 4 5 5 4 4 5 6 6 6 6
3 2 2 9 5 2 8 6 3 4 4 0 1 2 2 2 2 3 3 4 3 2 4 3 1 2 1 1 1 2 3 2 2 2 2 1 2 4 3 3 0 2 3 1 2 1 1 3 2 3 5 5 7 5 2 2 5 4 2 1 1 1 1 4 5 2 2 4 3 2 5 7 4 4 5 4 4 3 3 4 5 5 5 5 6 6 6 7
2 3 1 10 6 3 5 3 2 3 2 2 3 3 2 2 3 3 3 3 2 2 3 1 0 1 1 1 3 2 2 2 2 1 2 2 1 3 3 3 1 3 1 1 2 0 1 0 2 3 5 6 7 7 5 4 3 1 4 3 1 1 1 0 1 2 1 6 5 4 7 6 3 3 4 2 1 2 3 4 5 4 5 5 5 6 6 7
3 1 2 9 11 6 3 3 6 5 3 3 4 2 2 3 2 2 2 2 1 2 2 0 0 2 2 2 3 3 2 2 2 1 2 1 1 2 2 2 2 3 2 2 1 1 1 1 3 3 1 3 4 4 4 5 3 1 3 4 1 2 2 1 1 0 3 4 2 4 7 7 2 2 5 5 3 5 5 4 4 4 5 5 5 6 7 7
2 1 2 6 9 7 2 1 5 5 4 5 4 2 3 3 1 0 2 2 1 2 3 1 1 3 4 4 4 3 4 3 3 2 2 1 2 2 2 2 1 1 2 1 2 3 2 1 1 5 6 5 5 6 4 3 4 5 7 7 6 4 3 3 2 2 4 2 2 6 9 9 7 5 6 5 5 7 7 5 4 5 6 6 6 7 7 7
2 2 1 1 3 4 4 4 4 4 3 4 3 1 2 2 1 2 2 1 1 2 3 2 3 3 2 2 3 1 3 3 3 3 2 2 2 3 3 2 1 2 2 0 2 4 4 2 1 3 5 6 6 7 6 4 4 7 9 10 10 5 3 5 4 7 3 1 7 11 5 5 8 7 6 7 7 8 8 5 5 6 7 8 8 9 10 10
2 2 2 1 1 2 3 2 3 5 4 3 3 2 3 3 2 1 0 1 2 2 2 2 4 3 1 2 3 2 0 2 2 1 2 1 2 3 3 1 1 3 2 2 2 4 5 1 2 2 4 7 6 7 8 5 4 6 7 9 11 8 3 6 10 10 5 3 12 13 6 5 9 8 7 8 7 7 7 6 6 7 8 10 11 12 13 13
2 3 1 2 3 3 2 3 5 7 5 4 3 2 3 4 2 1 1 2 3 3 3 3 2 3 1 2 4 3 2 1 0 2 2 2 1 1 1 1 1 3 3 3 3 3 4 2 3 2 3 8 8 9 8 5 4 6 9 10 10 9 8 9 10 10 7 9 13 11 8 9 9 6 7 7 6 6 6 6 7 9 11 12 13 14 14 11
2 2 0 3 4 2 3 4 4 6 4 3 3 2 3 4 3 2 1 2 1 2 3 4 4 1 2 3 5 2 3 4 2 3 4 3 0 1 2 2 2 2 4 2 1 2 3 1 1 2 2 6 7 6 5 4 5 9 12 12 8 8 9 7 6 5 4 8 10 7 8 10 6 3 5 6 6 6 6 8 9 10 11 12 14 15 12 7
3 3 4 6 4 3 3 3 3 5 2 2 2 2 2 3 5 3 1 1 2 1 0 5 6 1 3 3 3 1 3 4 4 4 5 5 2 3 2 2 3 1 3 1 1 2 2 1 2 5 4 6 4 3 6 6 6 8 11 10 7 7 6 4 4 4 4 5 8 7 6 8 5 3 6 8 7 8 9 9 9 10 12 13 14 13 8 5
4 4 4 6 3 3 2 2 3 4 2 0 2 2 1 3 5 4 3 1 1 0 2 5 5 2 2 2 3 2 3 5 5 5 4 4 2 2 1 2 4 3 1 2 1 1 3 2 1 3 2 6 4 3 6 6 6 6 6 5 6 6 5 4 4 4 3 4 3 5 7 7 6 6 8 10 11 12 11 9 8 10 13 14 11 8 6 7
Wind_Direction
267 267 264 266 269 271 274 278 282 287 283 267 238 215 212 220 225 211 196 186 189 196 189 179 143 82 25 62 134 84 12 262 273 264 251 263 286 280 251 269 306 326 330 315 335 16 14 8 357 354 354 350 10 256 285 201 130 66 102 141 246 211 218 196 179 220 260 268 258 321 37 77 330 316 322 328 30 15 345 334 323 11 27 35 35 38 47 54
264 264 265 269 271 274 276 279 282 283 283 271 253 237 224 224 224 209 193 190 194 186 170 156 107 30 341 21 98 237 297 285 281 276 263 265 274 260 242 301 320 325 325 316 10 31 35 350 337 359 32 40 304 273 301 271 153 126 128 157 227 209 218 198 173 224 252 244 217 221 233 85 318 290 345 345 341 6 355 314 360 28 23 31 34 39 44 48
275 268 264 269 273 277 277 279 282 280 280 273 255 243 231 224 220 208 178 172 175 163 162 160 53 11 331 334 314 274 284 303 301 279 262 243 233 232 240 333 330 327 331 15 13 9 14 302 314 352 64 186 276 284 341 297 216 175 136 186 240 221 242 239 195 233 233 221 204 206 212 250 317 268 4 358 335 5 11 329 33 46 22 25 28 33 39 43
278 271 265 267 274 278 278 277 278 276 277 271 255 241 229 222 218 211 190 172 175 185 206 225 222 245 273 284 302 288 297 0 309 251 183 180 188 200 190 352 339 334 334 20 357 338 333 313 314 45 104 297 301 8 273 254 231 172 156 199 232 208 236 256 237 235 225 208 10 262 320 356 325 98 60 26 351 354 22 25 65 69 39 35 32 34 38 40
278 274 270 270 275 275 276 273 272 273 273 269 257 242 228 221 221 217 209 198 198 209 222 225 226 239 253 273 291 275 52 44 285 181 152 167 165 166 118 1 341 347 0 20 358 355 345 334 47 54 70 306 326 25 250 242 148 185 225 226 232 187 215 259 255 241 238 38 20 351 358 349 318 37 29 37 23 3 37 58 72 70 53 47 44 41 40 39
282 279 279 280 283 279 280 277 272 271 269 269 258 242 229 221 224 221 216 211 208 214 222 224 231 237 245 271 274 174 114 92 266 170 161 155 134 148 116 5 2 10 21 18 5 11 5 16 48 37 50 351 278 228 254 275 89 228 278 278 248 211 228 270 284 358 38 37 353 341 338 339 55 39 40 48 51 59 65 69 71 66 60 57 52 47 42 39
286 287 292 296 302 297 295 289 280 276 266 264 256 239 225 222 229 227 219 213 211 216 221 222 226 229 231 200 171 91 108 250 258 171 162 125 121 112 129 37 32 20 16 13 6 9 22 33 28 166 86 332 254 233 271 314 16 201 257 300 278 229 235 258 287 313 354 307 265 302 16 5 52 60 59 55 52 61 66 69 72 69 62 57 53 49 45 43
287 292 300 307 313 308 305 302 297 287 267 258 254 238 220 216 225 230 224 214 211 214 217 217 217 214 196 152 131 53 10 260 211 166 161 112 131 102 163 179 43 11 9 7 357 337 1 42 20 109 70 269 235 284 313 342 351 189 229 276 307 286 275 284 299 294 292 267 241 178 23 26 89 93 69 52 43 46 64 68 68 66 59 54 52 49 45 43
288 294 304 316 318 314 314 316 311 303 286 255 240 231 216 209 216 224 221 213 206 208 211 206 207 199 180 154 102 54 288 212 147 153 141 113 137 116 161 169 18 353 1 357 9 15 311 70 44 86 148 238 314 315 343 12 301 271 260 276 299 302 299 301 300 285 284 266 210 55 24 21 96 94 63 41 40 40 61 62 57 58 55 50 49 46 43 41
289 297 309 322 322 321 327 326 318 311 309 255 219 216 206 198 205 212 211 206 199 201 200 195 197 180 176 158 81 76 241 157 129 130 115 120 143 119 124 92 356 347 347 348 23 38 39 176 235 139 160 252 342 310 340 116 233 277 317 310 301 305 303 293 283 280 282 255 196 89 52 19 4 67 68 29 15 25 62 57 49 56 54 50 48 45 42 41
289 301 316 326 329 330 332 328 316 314 331 94 181 188 186 186 194 200 198 192 189 192 190 186 180 165 172 138 102 156 207 136 124 108 99 101 136 49 43 34 352 336 332 355 32 35 37 26 357 110 124 319 331 317 303 227 257 305 344 324 310 324 313 299 289 278 235 249 153 117 86 32 18 46 72 37 13 26 66 60 49 56 53 50 49 44 43 40
289 307 325 331 338 336 331 326 316 336 48 82 129 151 158 171 183 185 178 173 177 180 178 174 166 164 152 98 131 187 175 152 127 112 101 28 335 337 342 345 351 343 328 2 15 13 20 12 37 73 237 303 345 326 289 249 295 318 10 324 306 345 327 306 315 278 129 105 132 123 77 28 28 32 31 40 37 47 65 61 52 56 52 50 48 45 45 40
292 314 332 339 347 341 335 349 33 69 77 90 114 130 147 164 168 164 157 157 163 164 163 161 162 168 142 71 222 178 169 179 169 182 214 316 307 314 305 295 347 4 339 346 338 355 0 345 34 74 218 105 286 273 302 340 351 303 344 322 311 357 333 310 342 34 99 74 54 107 119 22 32 27 21 15 21 65 65 58 55 56 52 52 46 46 45 39
299 323 338 349 353 355 14 46 81 91 95 101 112 127 143 148 144 144 143 145 149 148 151 153 159 170 147 226 214 174 182 191 202 228 233 263 298 314 310 278 331 2 335 314 314 352 9 342 34 61 209 138 239 293 347 354 8 298 306 13 358 9 292 310 340 52 65 7 52 86 142 87 36 23 22 10 24 76 72 58 58 58 53 54 47 48 44 40
306 332 346 354 354 17 55 79 95 98 103 107 112 120 124 124 127 130 132 138 139 141 147 149 162 163 77 334 211 176 192 202 215 232 237 274 311 321 318 306 291 301 281 292 311 311 343 5 53 84 277 277 39 24 348 339 355 9 11 317 348 144 275 313 331 54 87 323 39 72 127 105 55 25 21 20 38 76 78 65 62 59 55 55 46 48 46 41
314 337 355 6 9 48 75 90 97 101 105 108 110 112 112 114 118 122 129 134 133 138 137 139 182 172 81 20 39 154 199 225 224 224 239 301 331 326 322 313 298 308 262 266 336 318 345 47 68 134 273 326 61 69 15 7 347 358 68 262 284 278 302 322 327 354 103 144 16 37 127 128 62 33 24 29 46 74 78 67 61 58 54 54 48 47 45 40
316 339 16 48 59 79 88 94 98 104 106 107 109 108 108 109 112 118 121 121 125 131 120 106 204 159 81 62 23 245 219 200 213 230 263 323 348 349 351 349 3 8 322 272 348 344 29 61 9 43 38 14 87 80 34 10 326 329 22 310 261 244 278 309 307 342 31 77 35 48 91 109 67 49 40 35 48 71 73 65 59 58 53 52 49 47 43 39
308 341 61 99 99 96 99 104 105 109 110 109 107 104 104 103 104 109 110 115 120 109 77 42 71 89 326 305 301 264 87 127 243 280 309 338 351 351 354 348 2 15 23 12 353 15 17 5 50 43 5 4 43 83 94 239 213 250 278 282 292 284 254 269 270 298 4 59 89 82 88 101 82 61 53 39 46 69 72 67 62 58 55 52 48 47 43 40
289 344 113 125 124 115 114 117 116 118 117 112 109 106 102 96 92 96 102 108 112 93 79 277 89 121 225 289 344 353 13 347 327 17 19 2 342 331 336 335 9 38 61 27 331 320 89 29 37 23 336 318 289 141 180 218 191 202 228 192 232 276 273 253 250 268 305 84 85 96 104 107 92 72 65 50 50 70 72 66 64 56 53 51 47 46 42 41
254 194 135 134 145 137 129 129 126 126 124 120 118 109 97 84 71 59 32 60 111 144 152 230 165 117 124 327 350 357 356 359 32 50 22 358 337 331 6 33 35 44 80 170 256 271 96 65 353 243 247 252 245 217 215 218 176 165 145 157 232 232 278 274 263 291 140 92 44 89 104 97 92 82 66 63 62 69 68 62 60 54 52 49 47 46 41 40
215 184 153 146 162 152 140 139 134 132 130 127 122 103 114 137 97 96 277 27 341 39 52 269 183 100 85 34 16 9 41 48 26 32 13 352 346 17 2 25 45 21 282 195 177 351 64 66 257 228 222 227 252 254 238 201 143 120 139 114 316 213 249 280 256 317 10 82 59 100 95 78 78 77 60 71 74 67 65 69 65 58 56 49 47 44 39 39
195 187 168 157 172 167 151 146 141 137 131 119 102 84 169 169 125 161 138 87 338 9 24 343 41 52 25 81 39 14 69 52 3 359 0 354 11 59 315 53 79 282 297 109 67 6 32 299 254 243 229 187 27 339 107 124 124 87 77 74 348 265 279 299 302 340 10 78 159 123 91 84 85 81 74 70 79 79 73 79 75 68 63 50 46 41 31 27
195 185 176 171 175 175 163 155 149 138 119 98 67 85 169 174 147 143 97 101 348 352 14 24 75 11 346 65 28 36 72 59 342 332 354 359 12 44 114 76 85 242 2 44 121 84 30 273 258 272 338 96 38 10 50 48 46 58 47 84 305 302 349 294 305 339 352 58 137 122 93 103 111 80 76 67 84 94 82 80 76 71 71 58 48 41 30 24
200 186 180 181 175 177 174 164 158 138 87 318 292 266 161 122 151 142 81 91 65 324 300 234 164 165 300 16 18 52 87 72 24 319 350 10 358 314 134 125 77 67 2 56 128 127 214 263 298 40 34 87 83 18 41 46 2 333 72 119 233 304 284 233 285 329 360 43 118 114 83 137 158 126 111 92 87 88 81 83 73 62 68 63 48 37 25 19
205 193 186 186 180 177 172 169 179 184 273 277 272 260 155 123 161 167 89 72 27 309 282 266 261 47 11 29 27 70 93 60 100 276 336 14 332 332 45 162 82 59 273 128 101 97 225 281 343 44 32 58 89 45 32 66 10 329 252 168 195 284 271 272 314 339 28 53 178 126 57 277 181 171 165 138 109 92 84 84 81 72 63 60 52 31 8 357
210 203 193 189 183 170 160 163 196 185 236 272 254 214 138 133 171 194 114 68 16 300 330 338 349 0 348 19 10 81 71 3 282 289 359 12 345 141 65 343 54 59 244 134 97 107 2 346 35 75 63 55 69 51 1 98 72 352 265 163 165 267 276 290 333 348 37 195 223 172 156 241 226 202 180 153 134 117 92 84 93 96 82 78 73 18 332 322
212 206 195 188 178 165 157 148 159 153 170 261 223 180 156 151 170 204 70 50 2 291 37 308 348 31 316 349 67 96 79 298 329 13 25 22 354 116 72 0 16 358 312 78 73 122 1 356 24 51 64 60 53 21 312 111 90 302 199 100 318 308 294 287 326 251 237 239 305 315 138 176 256 211 168 151 138 129 110 99 109 123 128 146 206 260 276 281
213 205 193 184 176 169 158 136 157 157 172 244 216 191 179 170 177 102 83 72 321 140 100 280 334 36 315 28 55 85 130 312 39 334 350 35 11 14 73 40 143 264 334 92 142 257 48 11 4 36 53 53 46 289 253 112 77 258 218 229 300 300 270 232 161 206 254 28 331 314 64 104 273 188 148 156 141 145 157 153 176 184 191 216 233 251 259 261
208 201 191 183 178 173 148 122 150 163 214 222 191 183 182 166 99 59 78 106 283 339 219 297 24 326 346 29 29 30 26 39 87 305 346 31 13 26 86 339 135 122 8 89 150 238 63 351 228 96 69 32 272 267 229 139 267 275 258 286 328 40 47 89 121 145 32 37 269 276 41 89 263 185 165 193 171 168 177 177 202 207 216 231 237 253 262 261
192 191 187 181 180 178 160 96 132 172 212 196 173 174 170 98 67 63 68 194 125 288 263 27 6 343 25 43 6 3 32 10 347 0 12 18 3 19 69 326 90 93 21 45 85 289 320 306 165 98 79 227 259 274 199 173 261 322 19 347 3 32 24 36 75 86 57 337 255 244 342 18 297 231 171 199 183 156 157 183 221 234 243 251 249 255 262 263
168 174 175 175 179 178 174 348 322 181 188 174 166 154 94 50 61 89 126 245 265 322 4 25 350 17 44 67 21 358 21 350 344 23 21 4 9 18 26 14 39 54 19 13 15 339 345 3 356 317 291 239 20 341 285 1 349 38 43 15 8 355 5 20 355 31 72 276 261 251 311 336 291 270 156 143 146 143 154 186 206 227 245 253 250 251 256 254
126 142 154 163 173 178 184 317 284 180 171 166 159 94 80 47 25 105 266 311 331 325 28 19 336 38 50 61 31 341 353 358 9 54 52 24 37 40 44 34 3 22 12 340 341 350 8 352 307 306 320 55 51 23 337 349 23 37 39 46 36 357 359 4 327 348 179 253 254 261 344 318 250 255 164 145 153 168 183 190 186 205 229 250 257 258 262 255
103 113 130 144 163 182 198 298 276 176 176 169 140 51 81 86 45 196 300 347 48 321 50 57 352 59 71 53 18 331 5 10 2 53 59 71 64 49 43 31 17 30 9 267 0 11 351 313 331 356 346 63 94 64 353 325 352 12 44 87 71 41 7 322 290 311 292 271 262 291 3 285 262 260 167 159 173 194 197 193 195 198 206 237 259 262 270 270
97 102 113 124 138 173 204 254 178 163 172 161 94 49 72 82 195 166 344 295 291 345 49 61 7 43 64 58 339 300 65 24 13 54 32 43 52 17 354 2 10 43 86 69 44 56 51 310 327 13 340 20 72 91 97 198 301 314 169 129 107 123 132 271 248 253 285 290 288 313 324 244 249 185 174 174 187 200 203 204 206 214 213 234 276 287 287 286
105 105 108 110 113 130 144 150 163 169 167 114 64 63 92 162 229 124 313 266 313 347 342 18 60 62 28 355 338 337 120 42 41 58 34 40 66 10 338 343 356 33 79 63 346 74 83 255 266 291 271 349 1 283 116 98 11 292 139 91 41 181 161 198 216 211 264 305 299 290 263 207 183 266 214 194 201 204 220 221 213 240 237 238 293 300 294 289
115 106 97 85 83 86 72 88 162 191 145 86 63 62 145 196 205 154 186 246 76 300 321 354 59 70 352 320 350 345 350 54 66 59 33 50 87 3 336 303 341 30 90 111 158 39 56 273 283 334 323 231 197 233 110 93 167 325 48 40 264 184 133 134 278 287 10 299 281 287 284 268 52 269 236 225 231 205 217 251 229 233 234 238 268 280 284 283
119 106 85 51 47 54 46 57 166 176 86 78 82 113 195 195 177 178 196 213 133 113 88 54 27 82 303 318 330 325 347 31 62 67 70 70 50 5 341 302 323 43 96 149 175 182 122 287 297 3 359 275 202 164 6 61 125 91 48 252 257 57 84 103 300 340 10 282 273 299 282 263 228 251 214 218 244 230 245 277 256 240 227 231 252 267 270 270
126 116 75 33 35 48 46 45 139 104 74 70 84 125 156 111 173 195 177 132 125 74 82 118 192 124 162 133 316 311 350 27 10 46 96 88 25 72 30 309 289 19 339 137 98 150 112 16 297 304 305 297 334 68 6 338 28 93 142 244 68 60 339 26 354 314 320 293 283 294 288 263 204 194 189 201 218 227 250 264 261 249 228 221 246 260 263 272
137 108 38 11 24 39 36 40 92 68 69 77 103 148 147 119 258 233 171 118 93 84 84 148 143 61 95 126 169 301 353 75 60 61 100 92 33 102 86 329 279 321 329 81 122 243 107 106 284 287 286 309 358 39 352 314 339 19 40 12 40 135 181 237 285 205 252 284 286 300 306 287 224 188 174 185 196 206 259 280 267 246 227 217 230 242 264 285
145 88 9 346 6 23 48 72 64 56 66 105 154 161 102 136 276 279 219 161 113 96 98 159 107 76 87 96 98 281 25 66 91 85 76 81 92 37 355 80 287 309 331 26 81 3 42 103 240 293 333 1 358 325 206 201 267 25 36 16 352 344 44 314 273 163 191 264 274 303 295 272 242 169 165 177 185 193 269 289 277 250 221 220 227 236 266 284
89 74 331 340 351 353 84 67 48 56 88 95 116 109 72 135 195 327 305 193 136 88 108 119 111 113 137 98 5 257 60 42 52 76 67 93 106 175 260 191 214 288 338 16 36 63 38 104 195 293 339 350 257 253 246 217 174 136 100 97 178 311 34 343 295 271 194 231 229 273 282 270 245 153 159 169 169 184 248 266 266 252 238 254 252 248 262 272
70 84 321 349 348 22 82 59 9 54 94 73 80 104 69 95 79 358 345 11 48 58 65 81 94 96 126 131 8 50 84 56 24 62 115 151 137 181 241 256 204 192 92 36 316 238 133 101 106 273 272 262 269 276 323 336 116 112 108 123 131 82 105 188 266 277 293 273 190 234 270 272 246 161 165 177 172 181 227 249 248 247 258 269 262 260 269 273
87 155 8 8 347 142 82 55 341 34 62 57 45 33 22 79 71 3 13 24 21 51 47 42 102 100 109 158 124 75 83 77 48 87 139 165 201 217 268 324 17 109 76 60 275 293 70 84 66 296 289 303 310 324 18 43 65 64 351 70 99 302 159 192 229 227 251 274 291 279 268 274 266 190 180 184 169 173 242 246 226 238 265 264 258 271 287 293
123 181 18 16 5 169 108 95 141 85 75 96 73 34 9 70 66 30 31 17 1 80 80 45 175 107 108 106 89 89 98 97 79 78 131 143 204 254 298 326 92 111 103 170 196 280 326 116 75 13 341 339 344 353 349 342 26 39 292 330 69 190 76 275 284 81 225 257 255 252 265 275 264 209 222 243 294 305 286 246 217 239 284 284 274 283 295 302
71 52 306 10 29 69 120 159 143 133 145 107 84 57 34 49 53 76 86 39 9 115 118 110 14 73 67 57 58 47 46 97 123 27 67 128 266 309 317 313 85 109 210 219 157 106 168 179 109 94 42 309 306 311 313 315 326 281 277 307 294 210 203 242 297 125 247 256 217 209 257 280 282 212 246 265 289 299 297 275 251 273 297 289 283 291 301 308
82 49 301 348 20 49 67 119 102 112 148 124 83 39 73 72 340 21 97 73 26 73 79 47 17 52 44 49 59 21 3 40 87 82 95 190 262 284 306 321 50 129 246 237 81 85 100 111 125 145 171 199 228 247 268 316 306 289 289 291 284 257 183 142 108 220 222 232 255 241 254 279 287 262 254 274 299 306 310 308 298 310 311 298 294 300 309 315
97 115 118 353 0 34 38 25 57 90 140 131 108 88 95 88 331 351 60 76 53 68 69 40 29 53 59 74 93 55 334 7 45 74 131 208 253 286 310 349 43 312 285 66 84 93 85 340 278 160 198 225 233 253 278 306 276 273 285 289 293 299 146 151 222 247 208 92 284 271 256 263 274 276 286 304 312 311 312 312 307 313 316 312 312 315 317 316
76 144 170 125 95 74 66 59 85 84 74 82 100 101 80 69 52 64 55 10 21 45 82 54 16 26 140 173 128 125 314 12 28 75 148 209 295 337 341 354 6 350 17 34 21 101 110 268 242 165 251 266 265 271 278 277 254 258 270 277 291 298 226 204 243 247 206 207 267 278 289 270 273 289 301 302 304 304 306 309 311 317 320 318 318 318 316 315
91 109 352 35 93 137 120 95 101 90 66 59 79 88 106 111 119 179 272 4 5 3 71 111 298 331 9 145 124 137 189 128 34 253 181 164 294 48 64 261 316 8 54 49 353 96 118 247 236 173 274 276 268 269 272 271 270 277 276 272 280 283 258 243 253 251 225 235 259 283 303 286 276 280 285 293 301 299 302 311 317 320 319 318 317 313 311 313
143 148 163 57 69 71 48 49 83 90 57 40 72 89 113 126 150 192 350 55 80 330 44 128 191 248 65 101 103 129 210 156 128 231 173 134 261 192 171 200 199 2 25 55 331 33 85 268 237 97 337 285 263 266 276 268 266 277 284 282 282 285 278 261 252 252 239 254 273 305 311 290 276 260 281 300 308 303 308 314 316 317 316 315 311 308 309 314
105 126 135 109 70 4 24 43 74 94 60 17 111 147 131 158 175 156 72 45 148 225 137 150 172 163 57 61 63 357 236 162 148 206 177 151 181 189 193 200 163 80 0 24 319 8 65 318 356 55 4 282 257 300 308 293 281 280 283 283 277 277 274 239 226 235 212 243 288 314 301 284 289 313 310 310 309 308 311 314 316 315 313 311 308 306 312 319
96 79 96 103 84 359 33 54 43 80 110 263 146 144 136 188 179 127 84 5 27 96 186 161 152 127 58 7 345 288 217 179 180 207 178 149 174 201 216 188 139 130 156 138 25 1 104 102 4 50 342 278 283 338 321 323 328 300 271 242 237 256 271 257 251 259 217 193 257 282 270 277 306 327 320 315 314 313 312 316 321 314 310 309 307 309 316 316